Regional Weather Roundup
Issued by NWS

Home | Current Version | Previous Version | Graphics & Text | Print | Product List | Glossary Off
Versions: 1 2 3 4 5 6 7 8 9 10 11 12 13 14 15 16 17 18 19 20 21 22 23 24 25 26 27 28 29 30 31 32 33 34 35 36 37 38 39 40 41 42 43 44 45 46 47 48 49 50

000
ASUS43 KTOP 312208
RWRKS

WEATHER ROUNDUP FOR KANSAS
NATIONAL WEATHER SERVICE GOODLAND KS
500 PM CDT THU JUL 31 2014

NOTE:  "FAIR" INDICATES FEW OR NO CLOUDS BELOW 12,000 FEET WITH NO
SIGNIFICANT WEATHER AND/OR OBSTRUCTIONS TO VISIBILITY.

KSZ001>006-013>018-027>032-041>047-312300-
NORTHWEST KANSAS

CITY           SKY/WX    TMP DP  RH WIND       PRES   REMARKS
GOODLAND       SUNNY     83  47  28 VRB6      30.17F
HAYS           SUNNY     84  55  37 SE8       30.07F
HILL CITY      SUNNY     88  46  23 W6        30.06F
RUSSELL        PTSUNNY   85  57  38 S10       30.06F
$$

KSZ061>065-074>080-084>089-312300-
SOUTHWEST KANSAS

CITY           SKY/WX    TMP DP  RH WIND       PRES   REMARKS
DODGE CITY     SUNNY     83  54  36 MISG      30.13F
ELKHART          N/A     79  55  43 N6          N/A
GARDEN CITY    MOSUNNY   80  50  34 S3        30.14F
GREAT BEND       N/A     81  55  41 CALM      30.08F
LIBERAL        MOSUNNY   81  55  41 NE9       30.16F
PRATT          SUNNY     81  52  36 N5        30.12S
$$

KSZ066>073-081>083-090>101-312300-
SOUTHEAST KANSAS

CITY           SKY/WX    TMP DP  RH WIND       PRES   REMARKS
CHANUTE        PTSUNNY   80  60  50 N5        30.06F
COFFEYVILLE    PTSUNNY   82  63  52 NE7       30.05F
HUTCHINSON     SUNNY     82  53  36 VRB6      30.08F
MEDICINE LODGE   N/A     82  57  42 NE8       30.08F
NEWTON         MOSUNNY   81  52  36 S7        30.10F
PARSONS        CLOUDY    82  62  50 VRB3      30.06F
WICHITA INTL   MOSUNNY   84  53  34 NW5       30.06F
WICHITA JABRA  MOSUNNY   83  56  39 NE6       30.07F
WICHITA MCCONL MOSUNNY   83  53  35 VRB7      30.07F
WINFIELD       MOSUNNY   82  61  48 SE6       30.07F
$$

KSZ007>012-019>026-033>040-048>060-102>105-312300-
NORTHEAST KANSAS

CITY           SKY/WX    TMP DP  RH WIND       PRES   REMARKS
CONCORDIA      SUNNY     86  57  37 E7G18     30.04F
EMPORIA        MOSUNNY   83  52  34 CALM      30.06F
LAWRENCE       SUNNY     88  56  33 VRB3      30.05F
MANHATTAN      SUNNY     85  51  31 W6        30.04F
MARYSVILLE     SUNNY     86  52  30 S6        30.03F
OLATHE IND     MOSUNNY   83  55  38 E7        30.06F
OLATHE EXE     MOSUNNY   81  56  42 E6        30.06F
SALINA         SUNNY     87  49  26 E10       30.05F
TOPEKA BILLARD SUNNY     87  53  31 VRB3      30.04F
TOPEKA FORBES  SUNNY     84  52  33 VRB6      30.05F
$$


USA.gov is the U.S. government's official web portal to all federal, state and local government web resources and services.